Latest Coastal Weather Observations for Cape Grim

IDV60701

Issued at 2:15 am EDT Wednesday 22 October 2014 (issued every 10 minutes, with the page automatically refreshed every 10 minutes)

About coastal observations | Map of coastal stations | Coastal observations for VIC | Marine services | Other Formats
Station Details ID: 091331 Name: CAPE GRIM Lat: -40.68 Lon: 144.69 Height: 86.0 m
Data from the previous 72 hours. | See also: Recent months at Cape Grim
Date/Time
EDT
Temp

°C
Wind Pressure Rain
since 9am
mm
Weather Cloud Vis
km
Sea
Height
m
Swell
Dir
 
Speed
knots
Gust
knots
hPa Trend Height
m
Period
s
Dir
22/02:00am 12.4 E 30 37 1022.1 - 0.0 - - - - - - -
22/01:30am 12.4 E 30 39 1022.8 - 0.0 - - - - - - -
22/01:00am 12.3 E 31 37 1023.1 - 0.0 - - - - - - -
22/12:30am 12.3 E 31 37 1023.5 - 0.0 - - - - - - -
22/12:00am 12.3 E 31 37 1024.0 - 0.0 - - - - - - -
 
Date/Time
EDT
Temp

°C
Wind Pressure Rain
since 9am
mm
Weather Cloud Vis
km
Sea
Height
m
Swell
Dir
 
Speed
knots
Gust
knots
hPa Trend Height
m
Period
s
Dir
21/11:30pm 12.4 E 30 37 1024.4 - 0.0 - - - - - - -
21/11:00pm 12.4 E 32 38 1024.3 - 0.0 - - - - - - -
21/10:30pm 12.5 ENE 31 39 1024.9 - 0.0 - - - - - - -
21/10:20pm 12.3 ENE 30 40 1025.0 - 0.0 - - - - - - -
21/10:00pm 12.4 ENE 29 36 1025.2 - 0.0 - - - - - - -
21/09:30pm 12.4 ENE 29 35 1025.5 - 0.0 - - - - - - -
21/09:00pm 12.3 ENE 28 35 1025.5 - 0.0 - - - - - - -
21/08:30pm 12.4 E 31 39 1024.9 - 0.0 - - - - - - -
21/08:00pm 12.5 ENE 31 37 1025.2 - 0.0 - - - - - - -
21/07:30pm 12.6 ENE 29 36 1025.8 - 0.0 - - - - - - -
21/07:00pm 12.9 ENE 29 36 1025.7 - 0.0 - - - - - - -
21/06:34pm 13.2 E 28 38 1025.7 - 0.0 - - - - - - -
21/06:30pm 13.2 E 29 36 1025.7 - 0.0 - - - - - - -
21/06:16pm 13.4 ENE 29 39 1025.6 - 0.0 - - - - - - -
21/06:00pm 13.6 E 32 40 1025.7 - 0.0 - - - - - - -
21/05:32pm 14.0 E 32 42 1025.9 - 0.0 - - - - - - -
21/05:30pm 13.9 E 33 42 1025.7 - 0.0 - - - - - - -
21/05:00pm 14.1 E 32 38 1025.8 - 0.0 - - - - - - -
21/04:53pm 14.5 E 31 41 1025.9 - 0.0 - - - - - - -
21/04:30pm 14.5 E 31 40 1026.4 - 0.0 - - - - - - -
21/04:00pm 14.8 ENE 30 38 1027.1 - 0.0 - - - - - - -
21/03:30pm 14.6 E 33 41 1026.9 - 0.0 - - - - - - -
21/03:26pm 14.9 E 32 42 1026.8 - 0.0 - - - - - - -
21/03:00pm 14.7 E 33 42 1027.0 - 0.0 - - - - - - -
21/02:52pm 14.8 E 32 42 1026.9 - 0.0 - - - - - - -
21/02:30pm 14.9 E 34 41 1027.3 - 0.0 - - - - - - -
21/02:00pm 15.0 E 33 40 1027.7 - 0.0 - - - - - - -
21/01:30pm 14.6 E 34 42 1028.1 - 0.0 - - - - - - -
21/01:00pm 15.3 E 31 39 1028.7 - 0.0 - - - - - - -
21/12:30pm 14.6 E 31 39 1029.0 - 0.0 - - - - - - -
21/12:00pm 14.3 E 32 39 1029.3 - 0.0 - - - - - - -
21/11:45am 14.5 E 30 40 1029.5 - 0.0 - - - - - - -
21/11:30am 14.3 E 31 39 1029.5 - 0.0 - - - - - - -
21/11:00am 14.4 E 30 37 1029.9 - 0.0 - - - - - - -
21/10:30am 14.1 E 31 42 1029.8 - 0.0 - - - - - - -
21/10:29am 13.8 E 31 42 1029.7 - 0.0 - - - - - - -
21/10:00am 13.6 E 31 40 1029.8 - 0.0 - - - - - - -
21/09:30am 13.5 E 29 38 1029.9 - 0.0 - - - - - - -
21/09:00am 13.0 E 31 39 1029.6 - 0.0 - - - - - - -
21/08:30am 12.5 E 31 39 1029.6 - 0.0 - Partly cloudy - - - - -
21/08:00am 12.0 ENE 28 36 1029.8 - 0.0 - Partly cloudy - - - - -
21/07:30am 11.5 ENE 30 35 1029.8 - 0.0 - Partly cloudy - - - - -
21/07:00am 11.3 ENE 29 37 1029.8 - 0.0 - - - - - - -
21/06:30am 11.0 ENE 27 35 1029.6 - 0.0 - Partly cloudy - - - - -
21/06:00am 10.9 ENE 27 37 1029.3 - 0.0 - - - - - - -
21/05:57am 10.5 ENE 27 37 1029.3 - 0.0 - - - - - - -
21/05:30am 10.9 ENE 29 33 1028.9 - 0.0 - Partly cloudy - - - - -
21/05:01am 10.9 ENE 26 37 1029.1 - 0.0 - Partly cloudy - - - - -
21/05:00am 11.0 ENE 26 33 1029.1 - 0.0 - Partly cloudy - - - - -
21/04:30am 11.1 ENE 28 36 1029.4 - 0.0 - Cloudy - - - - -
21/04:21am 11.2 ENE 26 36 1029.4 - 0.0 - Cloudy - - - - -
21/04:00am 11.2 ENE 27 33 1029.7 - 0.0 - Cloudy - - - - -
21/03:30am 11.0 ENE 27 35 1030.0 - 0.0 - Partly cloudy - - - - -
21/03:27am 11.0 ENE 25 35 1030.0 - 0.0 - Partly cloudy - - - - -
21/03:00am 10.8 ENE 26 32 1030.4 - 0.0 - - - - - - -
21/02:30am 10.7 ENE 24 31 1030.5 - 0.0 - Partly cloudy - - - - -
21/02:00am 11.1 ENE 25 33 1030.5 - 0.0 - Partly cloudy - - - - -
21/01:30am 11.1 ENE 24 30 1031.3 - 0.0 - Partly cloudy - - - - -
21/01:00am 11.3 ENE 23 30 1031.4 - 0.0 - Cloudy - - - - -
21/12:30am 11.2 ENE 18 23 1032.1 - 0.0 - Partly cloudy - - - - -
21/12:00am 11.1 ENE 19 24 1032.1 - 0.0 - Partly cloudy - - - - -
 
Date/Time
EDT
Temp

°C
Wind Pressure Rain
since 9am
mm
Weather Cloud Vis
km
Sea
Height
m
Swell
Dir
 
Speed
knots
Gust
knots
hPa Trend Height
m
Period
s
Dir
20/11:30pm 10.7 ENE 19 24 1032.5 - 0.0 - Partly cloudy - - - - -
20/11:00pm 10.4 ENE 16 21 1032.7 - 0.0 - Partly cloudy - - - - -
20/10:30pm 9.2 E 11 15 1033.0 - 0.0 - Partly cloudy - - - - -
20/10:00pm 7.9 E 10 14 1033.2 - 0.0 - - - - - - -
20/09:30pm 8.3 E 10 11 1033.4 - 0.0 - - - - - - -
20/09:00pm 8.4 E 12 14 1033.2 - 0.0 - - - - - - -
20/08:30pm 8.2 E 10 12 1032.9 - 0.0 - - - - - - -
20/08:00pm 8.4 E 10 13 1032.6 - 0.0 - - - - - - -
20/07:30pm 9.0 E 10 12 1032.4 - 0.0 - - - - - - -
20/07:00pm 10.0 ENE 11 14 1032.4 - 0.0 - - - - - - -
20/06:30pm 10.7 ENE 11 13 1032.7 - 0.0 - - - - - - -
20/06:00pm 11.3 ENE 13 17 1032.9 - 0.0 - - - - - - -
20/05:30pm 11.5 ENE 13 18 1032.9 - 0.0 - - - - - - -
20/05:00pm 11.6 ENE 13 17 1033.0 - 0.0 - - - - - - -
20/04:30pm 12.0 ENE 15 19 1032.9 - 0.0 - - - - - - -
20/04:00pm 12.1 ENE 16 22 1032.9 - 0.0 - - - - - - -
20/03:30pm 12.1 ENE 17 20 1032.8 - 0.0 - - - - - - -
20/03:00pm 12.0 ENE 17 22 1032.9 - 0.0 - - - - - - -
20/02:30pm 12.2 ENE 18 23 1033.2 - 0.0 - - - - - - -
20/02:00pm 12.4 ENE 16 21 1033.5 - 0.0 - - - - - - -
20/01:30pm 12.2 NE 15 18 1033.8 - 0.0 - - - - - - -
20/01:00pm 12.5 ENE 13 20 1033.9 - 0.0 - - - - - - -
20/12:30pm 12.0 ENE 14 17 1034.1 - 0.0 - - - - - - -
20/12:00pm 11.7 ENE 14 19 1034.3 - 0.0 - Mostly clear - - - - -
20/11:30am 11.9 ESE 13 17 1034.3 - 0.0 - Partly cloudy - - - - -
20/11:00am 11.1 ESE 11 14 1034.3 - 0.0 - - - - - - -
20/10:30am 10.4 ESE 12 16 1034.2 - 0.0 - - - - - - -
20/10:00am 10.4 E 13 16 1034.1 - 0.0 - - - - - - -
20/09:30am 9.6 SE 12 16 1034.0 - 0.0 - - - - - - -
20/09:00am 8.9 SE 12 16 1033.8 - 1.0 - - - - - - -
20/08:30am 8.1 SE 10 12 1033.6 - 1.0 - - - - - - -
20/08:00am 6.8 SE 10 12 1033.3 - 1.0 - - - - - - -
20/07:30am 6.1 ESE 11 13 1032.8 - 1.0 - - - - - - -
20/07:00am 5.6 SE 11 13 1032.4 - 1.0 - - - - - - -
20/06:30am 4.5 SE 12 13 1031.7 - 1.0 - - - - - - -
20/06:00am 5.2 SE 12 15 1031.3 - 1.0 - - - - - - -
20/05:30am 5.4 SE 12 14 1030.7 - 1.0 - - - - - - -
20/05:00am 6.7 SSE 11 15 1030.2 - 1.0 - - - - - - -
20/04:30am 6.8 SSE 12 16 1030.2 - 1.0 - - - - - - -
20/04:00am 7.4 SSE 12 15 1030.3 - 1.0 - Partly cloudy - - - - -
20/03:30am 7.4 SSE 13 17 1030.1 - 1.0 - Cloudy - - - - -
20/03:00am 7.2 SSE 10 12 1029.9 - 1.0 - Mostly clear - - - - -
20/02:30am 7.4 S 11 14 1029.9 - 1.0 - - - - - - -
20/02:00am 7.4 S 11 14 1030.1 - 1.0 - - - - - - -
20/01:30am 8.3 S 13 17 1030.0 - 1.0 - Partly cloudy - - - - -
20/01:00am 8.3 S 12 17 1029.7 - 1.0 - Partly cloudy - - - - -
20/12:30am 8.6 S 12 15 1029.5 - 1.0 - Partly cloudy - - - - -
20/12:00am 8.9 S 15 19 1028.9 - 1.0 - Cloudy - - - - -
 
Date/Time
EDT
Temp

°C
Wind Pressure Rain
since 9am
mm
Weather Cloud Vis
km
Sea
Height
m
Swell
Dir
 
Speed
knots
Gust
knots
hPa Trend Height
m
Period
s
Dir
19/11:30pm 9.5 S 19 26 1028.4 - 1.0 - Partly cloudy - - - - -
19/11:05pm 9.3 S 19 29 1028.1 - 1.0 - Partly cloudy - - - - -
19/11:00pm 9.3 SSW 22 29 1028.0 - 1.0 - Partly cloudy - - - - -
19/10:30pm 9.5 SSW 22 29 1027.7 - 1.0 - Partly cloudy - - - - -
19/10:11pm 10.0 SSW 22 34 1027.5 - 1.0 - Partly cloudy - - - - -
19/10:00pm 10.3 SSW 23 31 1027.3 - 1.0 - Partly cloudy - - - - -
19/09:41pm 10.2 SSW 25 36 1026.9 - 1.0 - Partly cloudy - - - - -
19/09:30pm 10.6 SW 23 29 1026.9 - 1.0 - Partly cloudy - - - - -
19/09:00pm 10.1 SSW 23 31 1026.1 - 1.0 - Partly cloudy - - - - -
19/08:44pm 9.9 SSW 25 36 1025.5 - 1.0 - Partly cloudy - - - - -
19/08:30pm 10.3 SSW 22 30 1025.0 - 1.0 - Partly cloudy - - - - -
19/08:14pm 10.2 SSW 22 32 1024.6 - 1.0 - Partly cloudy - - - - -
19/08:00pm 9.8 SSW 23 32 1024.4 - 1.0 - Partly cloudy - - - - -
19/07:30pm 9.2 SW 29 40 1024.1 - 1.0 - Partly cloudy - - - - -
19/07:20pm 10.3 SW 27 37 1023.8 - 1.0 - Partly cloudy - - - - -
19/07:00pm 10.0 SW 25 32 1023.5 - 1.0 - Partly cloudy - - - - -
19/06:30pm 9.8 SW 22 28 1022.8 - 1.0 - Partly cloudy - - - - -
19/06:00pm 9.7 SW 20 27 1022.4 - 0.8 Rain Cloudy - - - - -
19/05:30pm 9.4 SSW 25 39 1021.7 - 0.6 - Partly cloudy - - - - -
19/05:00pm 10.1 SSW 25 38 1021.2 - 0.2 - Partly cloudy - - - - -
19/04:52pm 10.2 SSW 27 38 1021.1 - 0.2 - Partly cloudy - - - - -
19/04:30pm 10.5 SSW 27 38 1021.0 - 0.2 - Partly cloudy - - - - -
19/04:00pm 11.3 SSW 25 37 1019.2 - 0.2 - Partly cloudy - - - - -
19/03:53pm 11.9 SW 26 37 1019.9 - 0.2 - Partly cloudy - - - - -
19/03:52pm 11.8 SW 26 37 1020.1 - 0.2 - Partly cloudy - - - - -
19/03:30pm 12.9 SW 23 29 1019.7 - 0.2 - Partly cloudy - - - - -
19/03:00pm 12.8 SW 22 28 1019.0 - 0.2 - Cloudy - - - - -
19/02:30pm 13.8 SW 18 23 1018.8 - 0.2 - Partly cloudy - - - - -
19/02:00pm 14.1 SW 21 25 1019.5 - 0.2 - Partly cloudy - - - - -
19/01:30pm 14.4 SW 19 22 1019.6 - 0.2 - Partly cloudy - - - - -
19/01:07pm 13.6 SW 19 24 1019.6 - 0.2 - Partly cloudy - - - - -
19/01:00pm 13.3 SW 18 24 1019.5 - 0.2 - Partly cloudy - - - - -
19/12:30pm 12.9 WSW 14 21 1019.5 - 0.0 - Partly cloudy - - - - -
19/12:00pm 13.5 WSW 10 17 1019.8 - 0.0 - Cloudy - - - - -
19/11:33am 13.1 WSW 10 14 1019.0 - 0.0 - Partly cloudy - - - - -
19/11:30am 13.0 WSW 11 16 1019.0 - 0.0 - Partly cloudy - - - - -
19/11:00am 13.0 WSW 9 13 1019.6 - 0.0 - Partly cloudy - - - - -
19/10:30am 13.5 SW 13 17 1019.5 - 0.0 - Partly cloudy - - - - -
19/10:15am 13.1 SW 14 18 1019.4 - 0.0 - Partly cloudy - - - - -
19/10:00am 13.7 SW 14 18 1019.2 - 0.0 - Partly cloudy - - - - -
19/09:30am 12.3 SW 15 23 1019.4 - 0.0 - Partly cloudy - - - - -
19/09:27am 12.4 WSW 15 25 1019.4 - 0.0 - Partly cloudy - - - - -
19/09:00am 12.7 WSW 9 15 1019.4 - 0.0 - Cloudy - - - - -
19/08:30am 12.6 WSW 11 16 1019.0 - 0.0 - Partly cloudy - - - - -
19/08:00am 12.7 W 9 12 1018.8 - 0.0 - Partly cloudy - - - - -
19/07:30am 12.6 WSW 11 18 1018.4 - 0.0 - Partly cloudy - - - - -
19/07:00am 12.5 W 8 13 1018.3 - 0.0 - Partly cloudy - - - - -
19/06:30am 12.6 W 9 14 1018.2 - 0.0 - Partly cloudy - - - - -
19/06:00am 12.7 W 10 15 1017.7 - 0.0 - Cloudy - - - - -
19/05:30am 12.9 W 11 15 1017.6 - 0.0 - Cloudy - - - - -
19/05:00am 12.9 W 10 15 1017.3 - 0.0 - Cloudy - - - - -
19/04:30am 13.0 W 10 14 1017.4 - 0.0 - Partly cloudy - - - - -
19/04:00am 13.1 W 11 14 1017.3 - 0.0 - Partly cloudy - - - - -
19/03:30am 13.5 W 10 13 1017.4 - 0.0 - Cloudy - - - - -
19/03:07am 13.7 W 12 17 1017.5 - 0.0 - Partly cloudy - - - - -
19/03:00am 13.8 W 14 17 1017.6 - 0.0 - Mostly clear - - - - -
19/02:30am 14.3 WNW 14 16 1017.6 - 0.0 - - - - - - -

Other Formats:

Comma delimited format used in spreadsheet applications
http://www.bom.gov.au/fwo/IDV60701/IDV60701.95954.axf

JavaScript Object Notation format (JSON) in row-major order
http://www.bom.gov.au/fwo/IDV60701/IDV60701.95954.json